Theta_e
300 300 300 300 300 301 301 301 301 302 302 303 303 304 304 305 304 304 304 307 300 296 300 302 301 299 298 299 294 299 296 299 298 294 294 294 294 295 295 297 294 293 292 292 293 289 286 304 303 297 304 308 306 306
299 301 300 300 301 301 301 301 301 302 302 302 303 304 304 305 304 305 301 309 306 297 299 307 307 308 306 305 299 303 298 300 299 297 297 297 295 299 297 291 300 293 297 296 296 295 307 309 308 310 309 305 305 306
299 299 300 301 301 301 301 301 301 302 302 303 303 304 304 305 305 304 304 308 304 298 299 302 299 306 309 309 311 299 302 305 305 307 300 300 293 299 296 295 297 301 304 301 299 303 303 307 309 310 308 307 307 306
299 300 300 301 301 301 302 302 302 302 302 302 303 304 304 305 305 304 304 305 302 297 294 297 308 304 309 311 310 310 307 309 308 304 302 300 294 300 296 297 298 301 303 300 298 303 303 304 306 307 307 306 305 304
299 300 300 301 302 302 302 302 302 302 302 302 303 304 304 304 304 306 306 308 309 297 290 296 304 304 310 310 308 308 307 307 302 298 297 296 300 298 300 299 295 302 300 299 298 304 304 302 305 308 305 303 303 301
300 300 300 301 302 302 302 302 302 303 303 303 304 304 304 304 305 305 298 304 307 305 296 292 303 299 304 307 305 305 308 306 304 301 298 299 301 298 295 293 299 301 306 307 304 308 307 306 309 306 304 304 304 301
299 300 301 301 301 302 302 302 303 303 303 304 304 305 305 304 304 297 296 300 304 306 297 292 293 299 302 303 304 304 307 305 305 301 297 297 298 298 296 293 299 301 306 308 307 307 305 306 302 305 305 305 303 301
299 300 301 301 301 301 302 302 302 303 304 304 304 304 304 304 303 300 305 305 305 300 300 292 292 293 299 295 296 304 301 303 300 299 300 296 298 297 291 298 301 301 303 304 305 308 307 306 305 304 305 303 300 299
299 300 301 301 301 301 302 303 303 304 304 305 304 303 303 302 297 300 306 306 307 299 292 295 291 288 298 295 298 301 301 293 300 297 295 298 294 291 296 297 300 301 301 303 305 308 305 303 302 303 303 301 299 298
300 300 301 301 301 302 303 304 304 304 304 303 302 296 292 296 305 306 300 296 296 296 297 293 298 290 295 295 297 297 299 293 291 294 297 292 293 299 299 301 303 303 305 305 302 301 301 300 301 302 301 301 300 299
299 300 300 301 302 303 304 305 304 302 303 300 294 292 298 303 299 296 291 290 294 290 295 295 295 292 297 293 295 300 295 295 290 292 292 292 291 298 302 302 303 306 305 305 306 306 305 303 302 301 300 300 299 299
299 300 300 301 301 302 305 303 303 304 302 298 298 300 299 296 295 290 290 293 291 290 294 293 294 296 300 301 296 297 292 294 287 299 293 289 296 301 302 302 304 305 307 305 305 303 303 303 302 300 299 298 298 298
299 299 300 301 301 302 304 303 303 302 302 302 297 293 295 294 286 287 285 289 290 293 294 295 292 299 300 301 297 295 288 289 300 292 290 296 301 303 302 303 305 305 305 306 303 304 303 301 300 298 297 298 298 297
299 299 300 301 301 301 304 304 304 304 299 292 289 286 290 289 291 291 292 293 296 297 296 297 296 296 297 294 294 288 293 295 288 287 290 299 300 301 303 304 304 303 304 302 302 301 299 297 297 297 297 297 296 295
299 300 300 300 300 300 302 303 304 305 297 290 290 286 288 291 293 296 295 297 298 299 297 295 296 294 293 289 293 290 287 286 289 290 294 302 301 302 302 303 302 302 301 300 300 298 297 297 296 296 297 297 296 296
299 300 300 300 300 301 301 304 305 303 297 292 291 289 291 290 292 294 294 298 300 298 300 298 292 289 288 290 286 285 285 286 292 296 297 301 300 301 301 301 302 301 301 299 298 298 298 297 297 297 297 296 295 295
299 297 300 301 300 301 303 303 302 295 294 291 290 293 291 291 293 295 300 299 303 297 292 294 287 289 295 290 286 290 289 293 298 297 296 297 299 303 303 301 301 301 299 299 299 298 299 298 298 296 294 295 296 296
296 298 301 300 302 303 304 304 297 294 290 291 287 291 291 293 295 299 303 301 300 301 297 292 296 289 288 287 291 295 296 295 298 296 295 296 298 301 301 301 300 300 300 299 298 298 298 297 296 295 295 295 295 295
298 299 300 300 302 299 296 297 300 290 294 296 298 299 300 303 305 303 304 304 303 303 299 298 292 292 291 294 291 294 296 294 293 294 296 298 301 299 299 300 299 299 298 298 297 296 297 298 297 296 296 296 295 295
299 299 300 301 302 297 293 296 303 293 291 295 298 299 299 300 304 306 303 302 302 299 293 293 295 297 297 296 299 301 299 296 294 292 294 298 299 298 299 298 298 299 298 298 298 296 298 297 297 296 296 295 294 293
299 300 301 304 302 301 297 294 294 296 297 294 299 299 299 302 300 302 301 305 299 297 296 300 300 301 303 305 305 301 296 296 296 298 296 295 298 298 298 299 299 298 297 297 296 296 295 296 296 295 294 295 295 294
299 300 301 304 297 297 295 299 295 298 296 296 296 299 296 295 298 298 302 300 298 300 302 301 301 303 302 301 302 303 298 301 301 299 296 297 297 297 297 298 297 296 296 297 297 296 296 296 295 296 295 293 293 292
299 298 297 297 291 293 292 302 293 294 291 294 297 294 296 298 298 303 298 300 300 303 305 304 304 303 302 303 303 302 301 302 300 300 300 299 299 300 299 297 297 297 296 296 297 296 295 291 293 295 294 294 292 290
298 294 291 291 292 289 295 293 296 294 295 294 293 291 295 298 302 298 294 298 300 304 303 303 303 300 304 302 300 301 301 302 300 300 301 299 298 297 297 297 298 298 298 298 297 296 295 294 291 293 293 293 293 292
288 290 291 287 294 290 289 290 291 292 289 292 291 291 293 299 294 292 292 298 302 302 303 303 303 301 302 300 300 301 303 301 299 299 300 300 298 297 297 298 298 299 299 297 295 294 294 293 294 294 293 293 292 291
285 290 289 290 291 288 290 288 288 289 290 290 292 296 300 294 290 289 297 300 301 303 302 303 300 300 302 301 301 301 302 303 303 299 300 299 298 297 296 295 295 296 299 298 296 295 294 294 294 293 292 290 285 290
284 287 292 297 296 295 294 293 295 292 290 290 293 293 294 288 289 297 304 305 304 304 302 302 304 303 302 302 303 304 304 304 302 300 301 301 301 301 300 297 296 298 300 299 298 296 294 293 293 293 292 292 291 292
289 290 287 291 293 296 291 292 290 289 292 296 296 290 288 289 291 299 300 307 309 306 302 304 304 303 305 303 303 302 302 302 302 302 301 302 302 303 303 303 303 290 300 300 298 296 295 294 294 293 293 292 292 292
289 293 291 289 290 291 293 291 292 296 298 297 292 293 294 299 303 302 303 304 308 306 302 302 303 304 304 304 304 302 302 300 297 296 295 295 297 299 302 301 299 299 299 296 283 290 295 294 294 294 293 293 292 292
291 295 291 291 291 291 297 300 298 301 301 301 300 299 299 300 302 307 305 303 302 303 306 305 305 301 301 301 300 300 301 301 300 298 296 296 297 299 299 299 298 298 297 296 294 292 284 291 289 292 291 291 290 289
293 293 292 293 293 297 301 302 302 302 301 299 300 298 297 300 302 305 304 303 303 307 304 303 303 304 301 301 301 299 298 302 303 303 303 303 301 300 300 299 299 298 297 296 294 292 291 291 291 291 290 289 288 287
292 291 292 291 294 299 300 298 298 297 298 297 297 299 299 297 294 300 303 302 301 302 297 300 303 302 304 304 304 305 293 304 304 303 302 301 301 300 300 299 298 297 296 295 294 293 292 292 291 290 289 288 287 286
294 294 294 294 294 293 298 296 295 294 295 293 295 297 296 294 291 300 305 306 305 304 303 303 303 305 305 306 305 302 296 302 295 287 287 289 291 293 298 298 297 296 295 294 293 293 292 291 291 289 288 287 286 285
Wind_Speed
21 21 22 22 23 23 24 23 23 23 24 24 23 24 24 20 20 12 9 7 4 4 11 15 7 6 7 7 4 4 3 5 4 3 0 1 2 3 4 6 12 8 8 7 5 6 7 5 5 5 8 6 12 11
22 21 22 23 23 23 24 22 23 24 23 23 23 24 23 20 18 15 8 1 3 4 7 17 15 14 11 11 6 8 3 6 4 4 5 4 3 2 8 5 7 5 5 5 7 5 8 9 11 11 8 11 12 12
22 23 22 22 23 23 22 22 23 24 24 23 23 25 23 21 18 12 8 7 2 3 6 7 4 2 7 9 8 4 5 8 5 5 3 2 3 3 2 3 5 4 3 2 7 8 10 12 11 11 13 13 14 11
22 22 23 23 22 22 21 22 24 24 24 23 24 24 24 21 15 14 7 5 1 3 5 1 6 3 10 8 8 8 8 9 5 4 3 3 2 3 2 2 2 0 7 6 8 11 11 10 11 13 15 14 13 12
23 23 23 23 23 23 22 23 23 23 23 23 23 22 20 13 11 11 9 7 5 1 2 6 6 5 10 7 7 3 4 4 3 2 1 3 3 3 2 4 4 7 5 4 4 12 4 14 11 12 12 14 13 13
21 22 22 23 22 22 23 24 22 22 22 23 20 20 20 12 8 5 3 6 6 2 3 3 3 6 10 5 4 4 1 2 4 0 2 3 4 5 0 3 4 4 8 5 3 7 6 14 13 14 14 14 13 13
23 23 23 24 22 23 24 24 24 23 21 20 21 19 11 6 3 3 3 2 7 4 3 4 1 1 5 2 3 3 2 1 2 2 2 1 1 4 3 4 6 4 12 9 6 13 15 17 13 14 14 15 13 13
23 23 23 22 23 24 25 24 24 22 20 20 19 9 5 5 6 5 5 10 4 2 4 3 2 1 4 3 1 1 2 2 4 3 1 1 2 3 4 4 6 4 2 12 8 13 13 14 16 15 14 13 13 12
23 23 22 23 24 25 26 26 23 19 18 18 8 9 4 2 2 2 1 2 0 2 3 4 2 2 2 1 2 0 3 1 3 1 1 3 2 4 1 3 11 5 4 11 10 14 14 17 15 14 13 12 12 11
23 23 22 24 25 26 24 22 16 16 11 8 3 2 1 2 14 3 2 2 2 2 2 3 4 2 1 3 3 2 2 2 2 2 3 2 4 5 2 4 3 9 4 12 14 15 15 15 13 12 12 11 11 10
23 22 23 24 25 25 25 13 10 9 4 2 3 2 2 8 2 2 2 2 3 2 3 1 3 0 2 2 1 2 0 2 2 3 2 2 2 2 8 7 4 10 6 6 9 14 13 13 12 12 12 12 11 10
23 23 23 23 24 24 16 9 11 4 2 2 3 2 2 2 3 3 1 2 3 1 3 1 3 3 2 4 1 2 2 3 1 1 2 3 5 6 9 10 11 11 12 11 12 14 13 13 14 14 13 12 12 11
23 22 21 22 20 23 16 8 9 6 6 2 3 3 3 2 3 4 6 4 3 4 4 4 2 2 2 3 1 0 3 2 1 3 3 1 4 6 9 7 14 11 9 15 14 13 15 15 15 15 14 12 12 9
22 22 21 20 15 18 17 14 9 7 2 2 3 3 4 1 4 5 4 3 4 2 6 3 2 2 1 1 1 3 2 2 4 3 2 6 7 11 10 10 14 13 14 15 15 15 16 16 15 14 13 11 10 9
21 22 20 12 16 19 19 17 12 5 1 2 2 3 2 3 4 4 4 5 5 4 4 3 2 2 1 1 2 2 2 4 4 4 2 6 6 10 9 12 11 13 12 13 14 14 16 15 14 13 12 11 10 9
22 24 2 11 16 19 19 14 3 2 2 2 2 3 2 3 2 3 3 2 1 2 2 1 2 2 2 1 2 3 2 4 3 4 4 4 5 13 13 12 12 11 12 12 13 13 14 14 13 12 11 10 9 9
20 3 15 13 18 20 12 4 1 3 3 2 1 1 3 4 4 3 1 3 2 3 1 1 2 1 2 3 4 3 3 3 6 5 2 4 7 14 14 14 15 14 13 13 14 13 13 13 12 11 11 9 9 10
10 8 13 17 15 9 3 1 2 3 2 1 2 3 2 4 4 4 2 5 2 1 1 1 2 1 2 3 3 2 2 2 3 4 6 6 7 9 10 13 13 13 14 13 13 12 13 12 10 9 10 9 9 8
13 14 17 14 9 5 3 2 2 3 2 2 4 6 7 2 1 4 3 4 3 2 1 2 4 3 2 2 3 4 2 3 4 7 7 5 9 12 12 13 14 14 14 14 13 9 9 9 8 7 7 7 6 6
17 13 9 12 5 3 4 2 2 2 3 3 5 4 3 3 1 2 4 4 2 2 2 3 2 4 3 3 6 2 7 8 9 8 6 8 8 10 12 12 10 13 11 11 9 8 8 8 6 6 5 6 6 6
8 3 9 3 3 4 3 3 3 2 3 3 5 5 2 3 3 2 2 2 3 3 2 1 3 4 2 4 2 8 8 9 9 10 11 10 9 8 8 10 11 9 9 8 8 7 6 7 7 7 7 5 6 7
1 6 3 3 3 3 3 2 4 4 3 3 5 4 3 1 2 2 3 2 3 2 2 4 4 3 4 1 10 11 11 12 8 9 10 10 10 9 9 9 8 8 8 8 8 7 7 7 7 6 7 6 5 6
4 3 3 3 3 2 4 1 2 2 4 2 3 2 1 1 1 3 2 2 3 1 2 4 7 5 3 5 16 13 13 9 6 7 9 8 8 9 9 8 7 7 7 7 6 6 7 8 4 6 7 6 6 6
2 3 3 2 3 4 2 2 3 3 4 3 2 2 2 1 1 2 3 2 4 5 5 3 6 2 2 8 9 12 11 9 8 9 7 7 8 8 8 8 7 7 6 7 7 7 7 7 7 6 6 6 6 5
3 3 3 4 3 3 5 3 4 2 3 4 3 0 1 2 0 3 2 2 3 4 4 2 7 5 4 7 8 8 12 8 8 8 7 8 9 8 8 7 6 7 6 7 8 8 8 8 7 6 6 5 5 4
4 4 5 2 1 3 2 3 1 4 3 5 2 3 2 3 3 2 2 4 4 4 3 3 2 5 2 5 8 8 7 8 8 7 8 9 9 9 9 9 7 7 6 7 8 9 9 8 7 8 7 6 4 2
3 3 3 4 3 4 2 4 1 2 5 3 3 2 2 2 1 2 2 2 4 4 2 2 2 4 4 4 6 7 5 5 7 7 7 9 9 9 8 9 9 8 7 8 8 8 9 8 8 7 7 6 6 3
3 3 3 1 3 3 4 3 2 2 4 4 4 3 1 2 2 3 3 2 2 7 3 2 1 6 6 3 6 7 7 5 11 9 7 6 5 4 3 4 8 12 7 7 7 7 8 8 8 7 6 6 5 4
3 2 3 5 3 5 5 5 4 5 4 3 1 2 2 1 1 4 3 3 3 6 5 4 3 5 5 4 6 7 7 8 12 14 14 9 7 6 5 7 8 8 8 8 9 4 6 6 7 7 6 4 5 4
2 2 4 4 5 4 2 1 4 5 5 3 3 5 5 4 4 2 5 4 3 4 4 5 6 5 8 8 8 9 8 9 10 10 9 9 9 8 8 9 9 9 9 10 9 10 8 8 7 6 5 5 5 3
3 3 4 6 5 2 3 4 5 4 4 4 4 6 7 7 6 4 4 2 1 2 3 5 7 6 5 8 9 9 9 8 7 6 6 5 10 10 9 9 9 9 9 10 10 9 9 8 7 7 6 5 6 3
3 5 5 6 4 4 4 4 4 4 6 6 5 5 5 4 5 2 3 3 2 4 2 3 2 3 8 5 6 8 3 9 8 7 10 9 9 10 10 9 9 9 10 10 9 9 11 9 7 6 6 5 6 4
5 6 8 5 2 3 2 3 3 2 2 3 3 2 4 2 3 1 2 3 3 2 1 1 3 3 3 3 3 5 3 7 10 7 7 9 11 9 9 8 9 9 11 9 8 9 10 9 6 6 5 4 4 3
Wind_Direction
322 320 320 321 320 319 321 320 321 319 317 318 319 320 320 316 316 322 295 277 267 265 293 308 334 301 311 319 343 84 205 208 281 290 296 127 99 119 96 125 163 168 160 202 163 190 241 87 186 265 120 151 111 98
320 321 323 319 317 319 318 318 319 318 317 316 318 316 315 315 314 316 287 297 176 243 288 303 291 270 263 264 302 309 302 343 331 344 0 8 3 194 123 128 164 165 177 186 167 196 97 67 88 112 106 104 107 108
323 321 319 317 318 318 315 316 318 318 316 314 314 313 314 310 304 304 297 302 267 273 285 285 13 215 256 247 254 288 351 357 4 318 302 347 63 303 187 116 125 148 111 209 128 136 120 108 109 102 107 100 99 105
321 319 319 321 321 319 317 314 314 315 314 313 311 310 311 305 288 291 288 294 239 271 282 351 284 33 304 279 263 252 278 307 284 311 339 309 357 354 352 66 141 123 173 154 100 110 121 119 108 114 111 108 106 98
318 320 322 320 318 318 317 315 314 312 310 310 312 314 318 317 304 287 274 253 217 263 297 279 330 347 307 281 275 252 237 274 266 243 20 309 24 317 121 323 192 186 153 165 177 165 110 133 133 127 133 130 115 108
319 321 321 320 319 320 318 319 318 315 312 313 315 315 315 303 316 314 300 40 22 210 281 308 72 336 310 46 57 63 25 351 299 227 86 35 26 304 212 261 109 132 134 88 73 144 121 134 138 142 122 119 112 108
323 321 320 321 318 318 318 319 320 319 316 315 313 308 314 314 270 247 312 306 331 292 255 284 77 325 352 292 356 16 27 47 352 327 86 99 116 257 240 205 71 244 132 127 118 117 129 138 144 124 115 107 112 112
319 319 320 319 318 320 317 317 317 315 312 312 319 316 304 288 265 262 256 226 258 274 268 284 95 129 25 348 66 34 6 13 36 341 261 4 192 226 251 156 116 43 186 152 180 120 133 137 124 124 129 126 128 124
318 319 323 322 323 319 314 310 307 308 309 310 300 301 272 234 255 4 197 154 248 352 292 280 22 77 169 41 276 123 229 166 148 258 189 262 234 237 331 179 151 191 203 160 111 127 145 131 136 140 134 136 129 126
317 321 324 324 324 323 324 321 318 315 319 325 304 336 344 318 310 120 146 205 208 174 248 280 35 77 146 238 192 160 213 206 216 169 150 238 256 234 176 62 126 148 212 127 146 141 130 140 144 141 133 136 125 124
318 323 325 327 329 329 325 332 321 331 291 329 357 349 266 292 283 255 170 215 185 194 225 219 39 109 150 286 81 51 248 278 251 145 231 247 265 105 183 159 213 138 138 103 128 127 140 139 133 119 115 107 116 119
319 322 324 326 330 335 338 2 345 306 6 346 312 285 283 260 229 254 189 156 231 39 151 181 101 300 147 228 247 217 277 254 302 250 232 235 142 152 154 167 132 134 142 134 131 131 132 119 116 122 123 117 106 108
317 321 322 327 331 338 344 329 331 330 297 263 236 254 245 204 254 243 182 160 161 150 172 155 143 242 214 236 244 298 267 281 177 230 221 102 140 156 158 138 126 144 135 131 128 118 116 119 123 117 115 111 107 103
316 318 318 321 330 341 345 338 302 309 286 334 324 296 308 256 0 26 21 8 59 103 110 143 119 77 10 67 62 265 231 274 265 232 126 98 99 107 113 131 132 132 128 124 121 123 128 118 119 117 113 113 109 104
316 312 311 300 339 339 336 326 319 270 312 298 300 320 334 345 281 333 316 321 83 104 148 165 87 63 114 185 239 290 257 250 229 28 18 71 122 112 109 120 121 122 137 127 130 126 122 122 116 114 108 106 105 107
318 302 327 340 336 330 322 306 252 249 216 264 268 284 286 258 241 213 225 205 25 127 233 148 171 209 195 229 224 216 248 261 59 41 48 48 93 110 101 103 95 113 114 116 116 125 122 125 121 116 114 113 113 114
310 284 336 336 332 312 300 277 291 243 275 286 276 294 280 273 278 327 341 133 164 215 355 246 237 345 185 232 204 211 297 29 2 47 86 153 136 137 136 147 157 156 148 137 132 130 124 118 126 125 117 110 114 105
289 307 328 332 328 303 230 251 263 272 268 229 287 290 233 227 263 255 142 132 186 98 258 31 263 336 258 296 1 33 20 3 21 92 114 119 97 121 131 136 138 133 129 132 131 123 128 135 135 122 124 118 119 116
314 309 313 311 314 313 293 236 277 303 299 256 227 225 235 206 134 121 148 118 78 7 318 240 262 227 212 73 261 277 245 125 126 114 121 171 161 145 139 133 127 132 133 132 139 144 144 156 125 145 143 165 128 133
296 296 293 303 279 259 261 241 241 273 289 312 289 307 307 346 135 163 113 158 183 197 218 248 331 34 18 280 289 299 116 123 129 124 126 143 145 135 138 140 138 134 139 148 142 141 134 136 143 150 112 94 118 134
294 338 311 271 221 246 289 312 274 294 319 307 307 304 264 246 211 236 218 164 232 224 288 8 33 71 243 298 89 88 115 137 154 139 138 133 138 142 143 122 151 149 149 144 153 128 169 135 114 110 161 125 98 82
284 292 277 236 257 259 253 248 298 314 280 293 289 260 319 312 110 174 257 135 264 18 319 340 47 44 53 231 120 113 146 160 143 155 168 152 151 148 146 159 147 152 149 160 138 164 118 130 144 155 110 110 122 113
317 284 244 288 294 266 267 201 269 279 269 221 247 254 217 121 283 307 277 192 239 356 0 48 52 47 329 155 119 127 147 160 184 150 143 143 148 149 151 150 146 139 135 135 144 131 127 107 114 130 122 139 117 127
238 249 264 269 235 274 349 266 266 231 256 273 274 260 354 78 248 286 269 62 22 3 345 130 114 13 210 149 135 147 162 177 157 175 161 156 139 138 138 143 145 142 137 138 135 126 145 147 123 153 161 152 163 155
263 208 232 244 214 234 240 201 252 270 254 254 286 241 246 225 179 232 234 93 360 5 349 338 133 213 222 155 144 140 159 158 156 154 171 147 135 148 146 146 145 134 137 134 138 154 149 149 184 159 157 165 149 131
261 193 210 257 227 246 224 279 58 326 302 283 288 111 226 241 225 185 59 18 355 4 26 359 141 204 243 191 153 146 174 176 162 156 153 149 158 157 155 152 153 154 162 156 157 158 161 173 158 161 142 118 64 161
267 251 224 242 248 265 305 7 345 276 263 267 358 352 278 243 72 70 80 9 51 89 61 358 349 124 219 222 144 145 164 153 157 153 148 155 164 163 167 173 176 160 169 160 164 161 160 164 161 174 155 151 159 199
287 298 279 291 298 308 294 349 334 268 322 337 309 37 355 323 323 322 41 97 76 121 117 301 115 165 213 171 132 145 144 132 127 147 136 114 113 127 106 112 116 128 153 146 151 155 159 167 169 167 162 163 145 136
256 235 274 269 255 237 214 206 220 204 204 171 254 247 283 199 336 303 325 148 175 148 160 199 244 118 147 195 152 142 152 157 154 156 162 154 159 157 131 124 145 148 138 117 44 83 149 155 156 152 153 151 130 143
263 175 265 263 243 250 127 188 147 222 242 253 309 297 286 279 287 278 291 274 222 228 211 189 192 173 177 171 167 160 174 180 177 181 192 177 171 145 152 156 150 144 146 150 139 120 109 121 115 129 151 152 147 142
272 266 247 248 268 298 345 325 299 279 276 282 296 290 297 313 297 335 326 307 284 138 195 177 191 179 199 187 173 178 182 189 191 203 210 174 130 152 158 155 156 150 154 152 154 160 156 166 170 166 170 162 129 212
273 243 265 280 296 339 318 311 336 291 290 288 288 281 282 305 351 338 330 326 272 177 132 299 196 185 230 215 178 190 206 174 171 177 155 139 143 153 155 157 149 152 156 160 166 161 172 173 151 162 174 160 147 185
245 276 271 267 280 274 254 256 267 238 294 272 275 293 301 307 261 253 350 30 80 63 104 274 292 287 226 223 226 136 172 103 87 64 74 112 130 142 151 150 145 156 158 158 161 165 169 150 144 118 95 94 121 120